This demonstration page uses our WeatherBlox Daily Observations layout. Learn more.

Hourly Observations for July 5, 2019

Temp ( °F °C ) Dew Point ( °F °C ) Humidity (%) Winds ( mph kmh ) Pressure ( in mb ) Visibility ( mi km ) Precip ( " mm )
12:15 am 00:15 Mostly Cloudy 70 21 70 21 100 100 Calm 30.12 1020 1.75 2.816352 0 0
12:35 am 00:35 Mostly Cloudy 70 21 70 21 100 100 Calm 30.12 1020 2 3.218688 0 0
12:55 am 00:55 Cloudy 70 21 70 21 100 100 Calm 30.12 1020 2 3.218688 0 0
1:15 am 01:15 Partly Cloudy 70 21 70 21 100 100 Calm 30.12 1020 2.5 4.02336 0 0
1:35 am 01:35 Clear 70 21 70 21 100 100 Calm 30.09 1019 2 3.218688 0 0
1:55 am 01:55 Clear 70 21 70 21 100 100 Calm 30.09 1019 2 3.218688 0 0
2:15 am 02:15 Mostly Cloudy 70 21 70 21 100 100 Calm 30.09 1019 1.75 2.816352 0 0
2:35 am 02:35 Clear 70 21 70 21 100 100 Calm 30.09 1019 2 3.218688 0 0
2:55 am 02:55 Clear 70 21 70 21 100 100 Calm 30.12 1020 3 4.828032 0 0
3:15 am 03:15 Mostly Cloudy 70 21 70 21 100 100 ENE 3 6 30.12 1020 2 3.218688 0 0
3:35 am 03:35 Mostly Cloudy 70 21 70 21 100 100 ENE 3 6 30.12 1020 1.75 2.816352 0 0
3:55 am 03:55 Partly Cloudy 70 21 70 21 100 100 ENE 3 6 30.12 1020 2.5 4.02336 0 0
4:15 am 04:15 Partly Cloudy 68 20 68 20 100 100 ENE 3 6 30.12 1020 3 4.828032 0 0
4:35 am 04:35 Partly Cloudy 68 20 68 20 100 100 Calm 30.12 1020 3 4.828032 0 0
4:55 am 04:55 Partly Cloudy 68 20 68 20 100 100 Calm 30.12 1020 3 4.828032 0 0
5:15 am 05:15 Cloudy 68 20 68 20 100 100 Calm 30.12 1020 0.5 0.804672 0 0
5:35 am 05:35 Cloudy 68 20 68 20 100 100 Calm 30.12 1020 0.5 0.804672 0 0
5:55 am 05:55 Cloudy 68 20 68 20 100 100 Calm 30.12 1020 0.5 0.804672 0 0
6:15 am 06:15 Cloudy 68 20 68 20 100 100 Calm 30.12 1020 0.25 0.402336 0 0
6:35 am 06:35 Cloudy 68 20 68 20 100 100 Calm 30.12 1020 1 1.609344 0 0
6:55 am 06:55 Cloudy 68 20 68 20 100 100 Calm 30.15 1021 2 3.218688 0 0
7:15 am 07:15 Cloudy 70 21 70 21 100 100 Calm 30.15 1021 2.5 4.02336 0 0
7:35 am 07:35 Cloudy 70 21 70 21 100 100 Calm 30.15 1021 3 4.828032 0 0
7:55 am 07:55 Cloudy 70 21 70 21 100 100 NW 5 7 30.15 1021 3 4.828032 0 0
8:15 am 08:15 Cloudy 70 21 70 21 100 100 W 3 6 30.15 1021 3 4.828032 0 0
8:35 am 08:35 Cloudy 70 21 70 21 100 100 Calm 30.15 1021 3 4.828032 0 0
8:55 am 08:55 Cloudy 72 22 70 21 94 94 Calm 30.15 1021 3 4.828032 0 0
9:15 am 09:15 Cloudy 72 22 72 22 100 100 Calm 30.15 1021 4 6.437376 0 0
9:35 am 09:35 Cloudy 72 22 72 22 100 100 Calm 30.15 1021 4 6.437376 0 0
9:55 am 09:55 Cloudy 73 23 72 22 94 94 Calm 30.15 1021 4 6.437376 0 0
10:15 am 10:15 Cloudy 77 25 73 23 89 89 Calm 30.15 1021 5 8.04672 0 0
10:35 am 10:35 Cloudy 79 26 73 23 84 84 Calm 30.15 1021 5 8.04672 0 0
10:55 am 10:55 Mostly Cloudy 79 26 73 23 84 84 Calm 30.15 1021 7 11.265408 0 0
11:15 am 11:15 Mostly Cloudy 79 26 73 23 84 84 SW 6 9 30.15 1021 7 11.265408 0 0
11:35 am 11:35 Partly Cloudy 81 27 73 23 79 79 SSW 3 6 30.12 1020 10 16.09344 0 0
11:55 am 11:55 Partly Cloudy 81 27 73 23 79 79 SW 5 7 30.12 1020 10 16.09344 0 0
12:15 pm 12:15 Partly Cloudy 82 28 73 23 74 74 S 5 7 30.12 1020 10 16.09344 0 0
12:55 pm 12:55 Partly Cloudy 86 30 73 23 66 66 WSW 6 9 30.12 1020 10 16.09344 0 0
1:15 pm 13:15 Mostly Cloudy 86 30 73 23 66 66 SSE 6 9 30.12 1020 10 16.09344 0 0
1:35 pm 13:35 Mostly Cloudy 88 31 73 23 62 62 Calm 30.12 1020 10 16.09344 0 0
1:55 pm 13:55 Partly Cloudy 88 31 73 23 62 62 S 6 9 30.09 1019 10 16.09344 0 0
2:15 pm 14:15 Partly Cloudy 90 32 73 23 59 59 SSE 5 7 30.06 1018 10 16.09344 0 0
2:35 pm 14:35 Mostly Cloudy 90 32 75 24 63 63 W 6 9 30.06 1018 10 16.09344 0 0
2:55 pm 14:55 Partly Cloudy 90 32 73 23 59 59 S 3 6 30.06 1018 10 16.09344 0 0
3:15 pm 15:15 Partly Cloudy 90 32 75 24 63 63 W 10 17 30.03 1017 10 16.09344 0 0
3:35 pm 15:35 Sunny 91 33 73 23 56 56 SW 7 11 30.03 1017 10 16.09344 0 0
3:55 pm 15:55 Sunny 90 32 73 23 59 59 SW 8 13 30.03 1017 10 16.09344 0 0
4:15 pm 16:15 Sunny 90 32 73 23 59 59 SSW 8 13 30.03 1017 10 16.09344 0 0
4:35 pm 16:35 Sunny 91 33 73 23 56 56 S 10 17 30.03 1017 10 16.09344 0 0
4:55 pm 16:55 Sunny 91 33 73 23 56 56 SSW 9 15 30.03 1017 10 16.09344 0 0
5:15 pm 17:15 Sunny 90 32 73 23 59 59 WSW 7 11 30.03 1017 10 16.09344 0 0
5:35 pm 17:35 Sunny 91 33 73 23 56 56 SW 8 13 30.03 1017 10 16.09344 0 0
5:55 pm 17:55 Sunny 90 32 75 24 63 63 SW 9 15 30 1016 10 16.09344 0 0
6:15 pm 18:15 Sunny 90 32 73 23 59 59 SW 8 13 30.03 1017 10 16.09344 0 0
6:35 pm 18:35 Sunny 88 31 73 23 62 62 SSW 8 13 30.03 1017 10 16.09344 0 0
6:55 pm 18:55 Sunny 88 31 73 23 62 62 SW 6 9 30.03 1017 10 16.09344 0 0
7:15 pm 19:15 Sunny 86 30 75 24 70 70 SW 5 7 30.06 1018 10 16.09344 0 0
7:35 pm 19:35 Sunny 86 30 75 24 70 70 SW 3 6 30.06 1018 10 16.09344 0 0
7:55 pm 19:55 Sunny 84 29 75 24 74 74 SW 5 7 30.06 1018 10 16.09344 0 0
8:15 pm 20:15 Sunny 84 29 75 24 74 74 S 3 6 30.06 1018 10 16.09344 0 0
8:35 pm 20:35 Sunny 82 28 75 24 79 79 SW 3 6 30.06 1018 10 16.09344 0 0
8:55 pm 20:55 Clear 82 28 75 24 79 79 SW 3 6 30.06 1018 10 16.09344 0 0
9:15 pm 21:15 Clear 82 28 75 24 79 79 WSW 3 6 30.06 1018 10 16.09344 0 0
9:35 pm 21:35 Clear 81 27 75 24 84 84 SW 5 7 30.09 1019 10 16.09344 0 0
9:55 pm 21:55 Clear 81 27 73 23 79 79 Calm 30.09 1019 10 16.09344 0 0
10:15 pm 22:15 Clear 81 27 73 23 79 79 Calm 30.09 1019 10 16.09344 0 0
10:35 pm 22:35 Clear 81 27 73 23 79 79 Calm 30.09 1019 10 16.09344 0 0
10:55 pm 22:55 Clear 79 26 73 23 84 84 Calm 30.06 1018 10 16.09344 0 0
11:15 pm 23:15 Clear 79 26 73 23 84 84 Calm 30.06 1018 10 16.09344 0 0
11:35 pm 23:35 Clear 77 25 75 24 94 94 NE 3 6 30.06 1018 10 16.09344 0 0
11:55 pm 23:55 Clear 77 25 73 23 89 89 Calm 30.06 1018 10 16.09344 0 0

Powered by AerisWeather